TimeCST,TemperatureF,Dew PointF,Humidity,Sea Level PressureIn,VisibilityMPH,Wind Direction,Wind SpeedMPH,Gust SpeedMPH,PrecipitationIn,Events,Conditions,WindDirDegrees,DateUTC
12:54 AM,16.0,7.0,68,30.22,10.0,East,5.8,-,N/A,,Clear,100,2013-02-17 06:54:00
1:54 AM,15.1,7.0,70,30.22,10.0,ESE,5.8,-,N/A,,Clear,110,2013-02-17 07:54:00
2:54 AM,14.0,7.0,74,30.22,10.0,ESE,3.5,-,N/A,,Clear,110,2013-02-17 08:54:00
3:54 AM,14.0,6.1,71,30.22,10.0,Calm,Calm,-,N/A,,Clear,0,2013-02-17 09:54:00
4:54 AM,12.9,6.1,74,30.23,10.0,SE,3.5,-,N/A,,Clear,140,2013-02-17 10:54:00
5:54 AM,12.9,6.1,74,30.25,9.0,SSE,3.5,-,N/A,,Clear,150,2013-02-17 11:54:00
6:54 AM,12.9,5.0,71,30.24,10.0,SE,4.6,-,N/A,,Clear,140,2013-02-17 12:54:00
7:54 AM,16.0,7.0,68,30.25,10.0,SSE,8.1,-,N/A,,Clear,160,2013-02-17 13:54:00
8:54 AM,19.0,9.0,65,30.24,10.0,SSE,9.2,-,N/A,,Clear,160,2013-02-17 14:54:00
9:54 AM,23.0,10.0,58,30.23,10.0,SSE,8.1,-,N/A,,Clear,150,2013-02-17 15:54:00
10:54 AM,27.0,12.0,53,30.24,10.0,SSE,10.4,-,N/A,,Clear,150,2013-02-17 16:54:00
11:54 AM,30.0,14.0,51,30.20,10.0,SE,9.2,18.4,N/A,,Clear,140,2013-02-17 17:54:00
12:54 PM,33.1,16.0,50,30.17,10.0,South,10.4,-,N/A,,Clear,190,2013-02-17 18:54:00
1:54 PM,35.1,17.1,48,30.14,10.0,SSE,12.7,-,N/A,,Clear,160,2013-02-17 19:54:00
2:54 PM,37.0,17.1,44,30.10,10.0,SE,15.0,20.7,N/A,,Clear,140,2013-02-17 20:54:00
3:54 PM,37.0,18.0,46,30.08,10.0,SSE,11.5,19.6,N/A,,Clear,150,2013-02-17 21:54:00
4:54 PM,36.0,18.0,48,30.06,10.0,SSE,10.4,-,N/A,,Clear,150,2013-02-17 22:54:00
5:54 PM,34.0,18.0,52,30.05,10.0,SSE,10.4,-,N/A,,Clear,150,2013-02-17 23:54:00
6:54 PM,33.1,19.0,56,30.04,10.0,SE,11.5,21.9,N/A,,Clear,140,2013-02-18 00:54:00
7:54 PM,32.0,21.0,64,30.03,10.0,SSE,13.8,-,N/A,,Clear,150,2013-02-18 01:54:00
8:54 PM,32.0,21.0,64,30.02,10.0,SSE,11.5,-,N/A,,Clear,150,2013-02-18 02:54:00
9:54 PM,32.0,21.0,64,29.99,10.0,SSE,13.8,-,N/A,,Clear,150,2013-02-18 03:54:00
10:54 PM,33.1,21.0,61,29.96,10.0,SSE,12.7,23.0,N/A,,Clear,160,2013-02-18 04:54:00
11:54 PM,35.1,21.0,57,29.93,10.0,SSE,16.1,24.2,N/A,,Clear,160,2013-02-18 05:54:00